Temperature
14 14 13 13 13 13 12 12 12 11 11 11 11 11 10 10 10 10 10 10 10 10 10 10 10 10 10 10 10 10 10 10 10 10 10 10 10 10 10 10 10 10 10
14 13 13 13 13 13 12 12 11 11 11 11 10 10 10 10 10 10 10 10 10 10 10 10 10 10 10 9 9 9 9 9 9 9 10 9 10 10 10 10 10 10 10
13 13 13 13 13 12 12 12 11 11 10 10 10 10 10 10 10 10 10 10 10 10 10 9 9 9 9 9 9 9 9 9 9 9 9 9 9 9 9 9 10 10 10
13 13 13 13 12 12 12 11 11 11 10 10 10 10 10 10 9 9 9 9 9 9 9 9 9 9 9 9 9 9 9 9 9 9 9 9 9 9 9 9 9 9 9
13 13 13 12 12 12 11 11 11 10 10 10 10 10 10 9 9 9 9 9 9 9 9 9 9 9 9 9 9 9 9 9 9 9 8 8 9 9 9 9 9 9 9
13 12 12 12 12 11 11 11 10 10 10 10 10 9 9 9 9 9 9 9 9 9 9 9 9 9 8 8 8 8 8 8 8 8 8 8 8 8 8 8 8 8 8
12 12 12 12 11 11 11 10 10 10 10 9 9 9 9 9 9 9 9 9 8 8 8 8 8 8 8 8 8 8 8 8 8 8 8 8 8 8 8 8 8 8 8
12 12 11 11 11 11 10 10 10 10 9 9 9 9 9 9 8 8 8 8 8 8 8 8 8 8 8 7 7 7 7 7 7 7 7 7 7 7 7 7 7 7 7
12 11 11 11 11 10 10 10 10 9 9 9 9 9 9 8 8 8 8 8 8 8 8 7 7 7 7 7 7 7 7 7 7 7 7 7 7 7 7 7 7 7 7
11 11 11 10 10 10 10 10 9 9 9 9 8 8 8 8 8 8 8 8 7 7 7 7 7 7 7 7 6 6 7 7 6 6 6 6 6 6 6 6 6 6 6
11 11 10 10 10 10 9 9 9 9 8 8 8 8 8 8 8 7 7 7 7 7 7 7 7 7 6 6 6 6 6 6 6 6 6 6 6 6 6 6 6 6 6
10 10 10 10 9 9 9 9 9 8 8 8 8 8 8 7 7 7 7 7 7 6 6 6 6 6 6 6 6 6 6 6 6 6 6 5 5 6 6 5 5 5 5
10 10 10 9 9 9 9 8 8 8 8 8 7 7 7 7 7 7 7 7 6 6 6 6 6 6 6 6 5 5 5 5 5 5 5 5 5 5 5 5 5 5 5
10 9 9 9 9 9 8 8 8 7 7 7 7 7 7 7 7 7 6 6 6 6 6 6 5 5 5 5 5 5 5 5 5 5 5 5 5 5 5 5 5 5 5
9 9 9 8 8 8 8 7 7 7 7 7 6 6 6 6 6 6 6 6 6 5 5 5 5 5 5 5 5 4 4 4 4 4 4 4 4 4 4 4 4 4 4
9 8 8 8 8 7 7 7 6 6 6 6 6 5 5 5 5 5 5 5 5 5 5 5 5 4 4 4 4 4 4 4 4 4 4 4 4 4 4 4 4 3 3
8 8 8 7 7 7 7 6 6 6 5 5 5 5 5 5 5 5 5 5 4 4 4 4 4 4 4 4 4 4 3 3 3 3 3 3 3 3 3 3 3 3 3
8 7 7 7 7 6 6 6 6 5 5 5 5 4 4 4 4 4 4 4 4 4 4 4 4 3 3 3 3 3 3 3 3 3 3 3 2 2 2 2 2 2 2
7 7 7 6 6 6 6 5 5 5 4 4 4 4 4 4 4 4 3 4 4 3 3 3 3 3 3 3 3 3 2 2 2 2 2 2 2 2 2 2 2 2 2
7 6 6 6 6 5 5 5 4 4 4 4 4 4 3 3 3 3 3 3 3 3 3 3 3 3 2 2 2 2 2 2 2 2 2 2 1 1 1 1 1 1 1
6 6 6 5 5 5 5 4 4 4 4 4 3 3 3 3 3 3 3 3 2 2 3 2 2 2 2 2 2 2 2 2 1 1 1 1 1 1 1 1 1 1 1
6 6 5 5 5 4 4 4 4 4 4 3 3 3 3 3 3 2 2 2 2 2 2 2 2 2 2 2 2 2 1 1 1 1 1 1 1 0 0 0 0 0 0
5 5 5 5 4 4 4 4 3 3 3 3 3 3 3 2 2 2 2 2 2 2 2 2 2 2 2 2 2 1 1 1 1 1 1 1 0 0 0 0 0 0 0
5 5 4 4 4 4 4 3 3 3 3 3 2 2 2 2 2 2 2 1 1 1 1 1 1 1 1 1 1 1 1 1 1 1 1 0 0 0 -0 -0 -0 -0 -0
4 4 4 4 4 3 3 3 3 3 2 2 2 2 2 2 2 1 1 1 1 1 1 1 1 1 1 1 1 1 1 1 1 0 0 0 0 -0 -0 -0 -0 -0 -0
4 4 4 3 3 3 3 3 2 2 2 2 2 2 1 1 1 1 1 1 1 1 1 1 1 1 1 1 1 1 1 0 0 0 0 -0 -0 -0 -0 -0 -0 -1 -1
Wind_Speed
5 4 4 3 3 3 3 3 2 2 2 2 2 1 2 2 2 2 1 1 1 1 1 1 1 1 1 1 0 0 1 1 2 3 2 2 2 2 3 3 2 2 3
5 5 5 4 4 3 3 2 2 2 2 2 2 2 1 1 1 2 1 1 1 0 0 0 0 0 0 0 0 0 1 2 2 3 2 2 2 2 1 1 2 2 2
5 5 4 4 4 4 4 3 3 3 2 2 2 2 2 2 1 1 1 1 1 1 1 1 1 1 1 1 0 1 1 1 1 2 2 2 1 1 1 1 2 2 2
5 5 5 5 5 4 3 3 3 3 3 3 2 2 2 2 2 2 1 1 1 1 1 1 2 2 3 2 1 1 1 1 0 1 1 1 1 1 0 0 1 2 1
5 6 6 5 4 3 3 3 3 3 3 3 2 1 1 2 2 2 2 2 1 1 1 1 2 2 2 2 2 2 1 1 0 1 1 1 1 0 1 1 1 1 1
5 5 5 4 4 4 3 3 3 2 2 2 2 2 2 2 2 3 3 2 2 1 1 2 2 2 2 3 3 3 2 2 2 2 2 2 3 2 1 1 1 1 1
5 5 4 5 4 4 4 3 3 3 2 2 2 2 2 3 3 3 4 3 3 2 1 1 1 2 2 2 3 2 2 3 3 3 3 3 3 3 2 2 2 2 2
5 4 4 4 4 4 4 4 3 3 3 3 3 3 2 3 3 3 3 3 2 2 2 2 2 2 2 1 1 2 2 3 3 2 3 4 3 4 5 3 3 1 1
4 4 4 4 4 4 4 4 3 3 2 2 2 2 2 3 4 3 3 2 2 1 2 2 2 2 3 1 1 1 3 4 4 4 3 3 2 2 3 3 2 1 1
5 4 4 4 5 5 5 4 3 3 3 2 2 2 3 3 4 3 3 2 2 2 2 2 3 3 3 2 2 2 3 4 2 2 2 2 1 1 3 3 3 2 1
4 3 3 3 4 4 3 2 3 2 2 2 2 2 2 3 4 3 3 2 3 2 2 2 3 4 3 3 3 3 4 3 1 1 1 1 2 1 0 1 2 3 2
3 3 3 3 3 3 3 2 2 3 3 2 1 1 2 3 3 3 4 4 3 3 3 3 3 4 4 3 2 2 3 1 0 0 0 1 1 1 1 1 2 2 3
3 3 2 2 2 3 4 3 2 2 2 2 2 2 2 2 2 3 4 4 4 3 3 3 3 3 3 2 3 2 1 0 1 1 1 2 2 2 1 0 1 1 2
3 3 2 2 2 2 2 3 3 3 3 3 3 3 2 1 2 2 1 2 3 2 2 2 3 2 1 1 2 2 1 1 1 2 2 2 1 0 1 0 0 0 1
3 3 3 3 3 2 2 2 3 4 5 4 4 3 3 3 4 4 2 2 2 2 1 0 0 0 1 1 1 1 1 1 1 1 1 1 1 1 1 0 0 0 1
3 3 3 3 3 3 2 0 1 2 3 4 4 3 3 3 4 4 4 3 3 3 2 1 1 2 2 2 2 2 1 2 2 1 1 1 1 1 1 0 0 1 1
4 4 3 3 3 3 3 3 1 1 1 2 3 3 3 3 2 3 3 2 2 3 1 1 2 2 3 3 2 2 2 2 2 2 2 2 1 1 1 1 1 1 1
4 4 4 4 4 3 3 3 3 2 1 2 2 2 2 2 2 2 1 1 1 1 1 2 3 3 3 3 3 2 2 2 1 2 2 2 2 1 1 1 1 1 1
3 3 3 3 3 3 3 3 2 3 3 2 1 2 2 2 1 1 1 1 2 2 2 2 3 3 3 3 3 2 2 2 2 2 2 2 2 2 2 2 2 1 1
3 4 3 3 3 3 3 3 3 3 3 3 3 2 1 1 1 1 1 2 2 3 3 3 3 3 3 3 2 2 2 2 2 2 2 2 2 2 2 2 2 2 1
3 3 4 3 3 3 3 3 3 3 3 3 3 3 4 2 3 3 2 3 3 4 4 3 3 3 3 2 2 3 3 3 2 2 2 2 2 2 2 2 2 2 1
3 3 3 3 3 3 3 3 3 3 4 4 3 3 4 3 3 3 3 3 4 3 3 3 3 3 3 3 3 3 3 3 3 3 3 3 2 2 2 2 2 2 2
4 4 3 3 3 4 3 3 3 3 3 3 3 3 2 3 3 3 4 4 3 3 3 3 3 3 3 3 4 4 4 4 4 4 4 3 3 3 2 2 3 2 2
4 4 4 3 3 3 3 3 3 3 3 3 3 3 3 3 3 4 4 3 3 3 3 3 3 4 5 4 4 5 5 5 5 4 5 4 4 3 3 3 3 3 3
4 4 4 4 3 3 3 3 3 2 3 3 3 3 3 3 3 3 3 3 3 3 3 3 3 4 5 6 5 5 6 6 6 5 4 4 4 4 4 4 3 3 3
4 4 3 3 3 3 3 3 2 2 2 2 2 2 2 3 3 3 3 3 3 3 3 3 4 5 5 5 6 6 6 6 7 7 5 4 4 5 5 4 4 4 4
Wind_Direction
179 178 172 177 172 160 164 177 177 171 157 159 162 136 113 108 107 103 99 94 89 46 30 80 15 35 50 21 61 183 193 176 227 277 282 298 306 313 333 338 329 322 314
182 176 178 170 162 164 177 183 170 171 171 166 151 138 136 129 125 127 139 126 147 163 317 86 324 358 24 6 48 313 245 218 200 246 286 299 289 287 326 342 343 337 323
172 172 171 170 173 183 191 185 175 176 168 149 145 154 166 167 160 167 175 185 201 213 212 206 237 193 247 273 265 295 276 270 210 209 263 282 279 298 5 356 4 354 338
169 171 181 189 191 193 188 177 181 179 169 169 175 177 182 183 181 181 172 179 198 224 226 222 226 219 224 222 229 245 265 282 278 211 261 277 265 281 135 215 347 359 344
173 179 191 187 178 171 173 176 174 173 174 171 169 175 178 179 196 176 173 170 182 213 283 274 259 252 245 240 245 226 211 231 256 251 271 286 285 230 220 204 224 335 327
176 188 181 168 169 174 178 172 167 169 162 156 174 184 190 215 222 196 178 177 182 190 249 291 291 288 288 285 283 248 216 213 226 220 239 251 260 234 198 196 168 82 296
176 181 178 173 178 187 179 169 180 182 168 178 200 193 219 240 228 203 191 163 168 187 208 252 300 313 315 298 299 297 282 278 255 211 221 239 238 222 187 194 197 189 225
170 178 182 178 180 177 174 185 193 186 184 199 211 211 221 251 247 225 195 154 157 188 214 217 232 282 287 252 287 317 302 296 285 252 228 239 237 214 199 195 191 192 283
180 189 189 183 181 181 190 198 194 180 190 207 213 211 222 255 247 231 189 157 171 220 250 247 237 247 281 261 187 274 296 297 291 281 280 274 270 212 161 124 115 106 277
199 197 188 183 187 193 199 198 193 188 202 203 213 224 230 249 252 236 195 165 188 230 259 269 269 262 273 251 200 221 265 277 299 321 333 346 352 186 164 161 171 175 205
190 178 179 183 189 191 187 189 176 175 173 186 214 251 251 255 255 244 211 182 199 214 234 256 265 274 278 267 236 222 254 265 258 262 330 3 16 33 145 202 190 188 199
164 165 177 181 187 176 165 172 166 167 174 189 204 272 286 280 268 253 236 218 206 199 229 241 253 265 268 270 260 271 276 277 110 108 56 317 306 288 271 246 241 233 227
150 166 176 171 173 169 170 174 171 172 182 202 203 231 268 285 285 271 254 237 229 217 228 240 259 272 268 272 277 273 268 141 140 194 242 261 261 257 265 292 304 314 320
167 178 175 166 161 156 167 175 179 188 196 205 213 223 245 268 271 280 281 266 241 243 256 257 258 262 273 286 286 275 251 189 194 227 248 262 292 292 248 228 241 231 356
177 183 178 176 171 171 180 194 199 214 206 206 215 209 211 241 253 242 226 233 225 223 202 109 14 337 326 321 307 288 270 248 234 239 231 253 263 253 266 280 216 170 230
176 185 183 179 178 176 173 206 252 231 232 230 222 222 235 241 255 248 242 238 222 192 153 167 216 232 240 255 253 251 245 246 246 231 224 218 226 226 246 288 293 245 260
184 192 188 187 185 183 179 180 215 311 294 250 231 230 235 242 244 244 242 219 184 158 154 200 225 230 240 251 243 236 239 243 233 215 220 225 219 216 210 225 248 285 288
187 201 197 192 188 186 190 196 196 202 245 295 282 240 229 233 233 230 215 145 175 174 196 213 230 237 237 244 244 238 240 240 226 218 214 211 201 204 210 228 230 242 258
190 195 192 184 182 182 188 193 201 207 215 236 279 284 255 240 235 228 179 184 204 219 225 228 230 233 234 237 241 233 223 221 224 220 218 214 203 199 213 224 227 240 256
196 199 186 175 174 180 186 193 206 212 218 223 231 245 250 223 255 260 240 222 219 228 232 234 237 238 234 232 234 224 217 215 220 224 225 226 216 207 213 217 215 221 236
187 195 192 184 187 192 195 204 212 214 219 227 236 231 216 213 221 232 236 232 231 232 235 234 233 236 238 234 231 218 215 219 219 222 222 218 210 218 220 211 208 211 220
180 185 189 192 195 198 204 207 209 213 219 228 243 243 232 224 225 234 237 239 239 238 235 231 232 231 227 227 228 220 220 223 221 218 220 210 202 206 205 203 204 208 212
180 187 194 198 198 203 205 202 207 213 219 226 229 230 231 229 233 240 243 242 237 240 240 234 236 244 246 243 237 224 219 225 228 220 209 203 199 201 203 210 212 211 219
184 190 193 195 196 202 206 209 213 217 220 225 230 231 232 232 235 242 247 243 237 238 235 233 235 238 237 243 248 243 237 235 227 219 204 198 200 204 204 210 216 217 220
185 189 190 194 199 207 211 211 212 218 221 227 231 235 237 237 240 246 247 243 239 241 243 242 247 246 242 240 241 242 232 222 217 213 206 199 202 204 206 210 214 215 217
184 187 192 194 199 205 208 210 213 217 224 233 240 243 242 242 245 248 247 244 243 249 250 246 246 248 249 248 244 242 233 223 218 214 205 196 198 203 203 207 209 210 209
Height
1515 1517 1517 1518 1519 1519 1520 1520 1521 1521 1521 1521 1521 1521 1521 1521 1520 1520 1520 1520 1520 1520 1520 1519 1519 1519 1519 1519 1519 1519 1519 1519 1518 1517 1517 1516 1516 1515 1515 1514 1514 1514 1515
1513 1514 1515 1516 1517 1517 1518 1519 1519 1519 1519 1519 1519 1519 1519 1519 1519 1519 1519 1519 1518 1518 1518 1517 1517 1517 1517 1517 1517 1517 1517 1516 1516 1515 1514 1513 1513 1512 1512 1512 1512 1512 1512
1510 1512 1513 1514 1515 1515 1516 1517 1517 1517 1517 1518 1518 1518 1517 1517 1517 1517 1517 1517 1517 1516 1516 1516 1515 1515 1515 1515 1515 1515 1514 1514 1513 1512 1511 1510 1510 1510 1510 1510 1510 1510 1510
1507 1509 1510 1511 1512 1513 1514 1514 1515 1515 1515 1515 1516 1516 1515 1515 1515 1515 1515 1515 1515 1515 1514 1514 1513 1513 1513 1512 1512 1512 1512 1511 1510 1509 1508 1508 1507 1507 1507 1507 1507 1508 1508
1505 1506 1507 1509 1510 1510 1511 1512 1512 1513 1513 1513 1513 1513 1513 1513 1513 1513 1513 1513 1512 1512 1512 1512 1511 1511 1510 1510 1509 1509 1509 1508 1507 1506 1506 1505 1505 1505 1505 1505 1505 1505 1505
1502 1503 1505 1506 1507 1508 1508 1509 1509 1510 1510 1510 1510 1510 1510 1510 1510 1510 1510 1510 1510 1509 1509 1509 1509 1508 1508 1507 1507 1506 1506 1505 1504 1504 1503 1503 1502 1502 1503 1503 1503 1502 1503
1499 1501 1502 1503 1504 1505 1505 1506 1506 1507 1507 1507 1507 1507 1507 1507 1507 1507 1507 1507 1507 1506 1506 1506 1506 1505 1505 1504 1504 1503 1503 1502 1502 1501 1501 1500 1500 1500 1500 1500 1500 1500 1500
1496 1498 1499 1500 1501 1501 1502 1502 1503 1503 1504 1504 1504 1503 1503 1503 1504 1504 1504 1504 1504 1503 1503 1503 1503 1502 1502 1501 1501 1500 1500 1499 1499 1498 1498 1497 1497 1497 1497 1498 1498 1498 1499
1493 1494 1496 1497 1498 1498 1499 1499 1500 1500 1500 1500 1500 1500 1500 1500 1500 1501 1501 1500 1500 1500 1500 1500 1499 1499 1499 1498 1498 1497 1496 1496 1496 1495 1495 1495 1494 1494 1494 1494 1495 1495 1495
1490 1491 1493 1493 1494 1495 1495 1496 1496 1497 1497 1497 1497 1497 1497 1497 1497 1497 1497 1497 1497 1497 1497 1497 1496 1496 1495 1495 1494 1494 1493 1493 1493 1492 1492 1492 1491 1491 1491 1491 1492 1492 1492
1488 1488 1489 1490 1491 1491 1492 1493 1493 1493 1493 1493 1493 1493 1493 1493 1493 1494 1493 1493 1493 1493 1493 1493 1493 1493 1492 1492 1491 1490 1490 1490 1489 1489 1489 1489 1488 1488 1488 1489 1489 1490 1490
1485 1485 1486 1487 1487 1488 1488 1489 1489 1489 1489 1489 1489 1489 1489 1489 1489 1489 1490 1490 1490 1489 1489 1489 1489 1489 1488 1488 1488 1487 1487 1487 1486 1485 1485 1485 1485 1486 1486 1486 1486 1486 1487
1481 1482 1483 1483 1484 1484 1485 1485 1485 1485 1485 1484 1484 1484 1484 1485 1485 1486 1486 1486 1485 1485 1485 1485 1485 1485 1485 1484 1484 1484 1484 1483 1483 1482 1482 1482 1483 1483 1483 1483 1483 1483 1484
1478 1479 1479 1480 1480 1481 1481 1481 1481 1481 1480 1480 1480 1480 1480 1481 1481 1481 1481 1482 1482 1481 1481 1481 1481 1481 1481 1480 1480 1480 1480 1479 1479 1479 1479 1480 1480 1480 1480 1480 1480 1480 1480
1475 1475 1476 1476 1476 1477 1477 1477 1477 1477 1477 1477 1477 1477 1476 1476 1477 1477 1477 1477 1477 1477 1477 1477 1477 1477 1476 1476 1476 1476 1476 1476 1476 1476 1476 1476 1476 1476 1477 1477 1477 1477 1477
1472 1472 1472 1472 1472 1473 1473 1473 1473 1473 1473 1473 1473 1473 1473 1473 1473 1473 1473 1473 1473 1474 1473 1473 1473 1473 1472 1472 1472 1472 1472 1472 1472 1472 1472 1472 1473 1473 1473 1474 1474 1474 1474
1468 1468 1468 1468 1468 1469 1469 1469 1469 1469 1469 1469 1469 1469 1469 1469 1469 1469 1469 1469 1469 1469 1469 1468 1468 1468 1468 1468 1468 1468 1468 1468 1469 1469 1469 1469 1469 1470 1470 1470 1471 1471 1471
1465 1465 1465 1465 1465 1465 1465 1465 1465 1465 1464 1464 1465 1465 1465 1465 1465 1465 1465 1466 1465 1465 1464 1464 1464 1464 1464 1464 1464 1464 1465 1465 1465 1465 1466 1466 1466 1466 1467 1467 1468 1468 1469
1461 1461 1461 1461 1461 1462 1462 1462 1461 1461 1461 1461 1461 1461 1462 1462 1461 1461 1461 1461 1460 1460 1460 1460 1460 1461 1460 1461 1461 1461 1461 1461 1462 1462 1462 1463 1463 1463 1464 1464 1465 1466 1466
1457 1458 1458 1458 1458 1458 1458 1458 1458 1458 1458 1458 1458 1458 1458 1458 1457 1457 1457 1457 1456 1456 1456 1456 1456 1457 1457 1457 1457 1457 1457 1458 1458 1459 1459 1460 1460 1460 1461 1461 1462 1463 1463
1453 1454 1454 1454 1454 1454 1455 1455 1455 1455 1454 1454 1454 1455 1455 1454 1454 1453 1453 1453 1453 1453 1453 1452 1453 1453 1453 1453 1454 1454 1454 1454 1455 1455 1456 1456 1457 1458 1458 1459 1459 1460 1461
1450 1450 1450 1450 1450 1451 1451 1451 1451 1451 1451 1451 1451 1451 1451 1451 1450 1450 1449 1449 1449 1449 1449 1449 1449 1449 1449 1450 1450 1450 1450 1451 1452 1452 1453 1453 1454 1455 1455 1456 1457 1458 1458
1446 1446 1447 1447 1447 1447 1447 1447 1448 1448 1448 1448 1448 1447 1447 1446 1446 1446 1446 1445 1445 1445 1445 1445 1445 1445 1446 1446 1446 1446 1447 1447 1448 1449 1449 1450 1451 1452 1452 1453 1454 1455 1456
1442 1443 1443 1443 1443 1444 1444 1444 1444 1444 1444 1444 1444 1443 1443 1443 1442 1442 1442 1441 1441 1441 1441 1441 1441 1441 1442 1442 1442 1442 1443 1444 1444 1445 1446 1447 1447 1448 1449 1450 1451 1452 1453
1438 1439 1439 1439 1439 1440 1440 1440 1440 1440 1440 1440 1440 1439 1439 1439 1438 1438 1438 1437 1437 1437 1437 1437 1437 1437 1438 1438 1438 1439 1439 1440 1440 1441 1442 1443 1444 1445 1446 1447 1448 1449 1450
1434 1435 1435 1435 1435 1435 1436 1436 1436 1436 1436 1436 1436 1436 1435 1435 1434 1434 1434 1434 1433 1433 1433 1433 1433 1434 1434 1434 1434 1435 1435 1436 1437 1438 1439 1440 1441 1442 1443 1444 1445 1446 1447